Regional Weather Roundup
Issued by NWS

Home | Current Version | Previous Version | Text Only | Print | Product List | Glossary Off
Versions: 1 2 3 4 5 6 7 8 9 10 11 12 13 14 15 16 17 18 19 20 21 22 23 24 25 26 27 28 29 30 31 32 33 34 35 36 37 38 39 40 41 42 43 44 45 46 47 48 49 50

000
ASUS43 KMPX 250110
RWRMN
WEATHER ROUNDUP FOR MINNESOTA
NATIONAL WEATHER SERVICE TWIN CITIES/CHANHASSEN MN
800 PM CDT FRI OCT 24 2014


NOTE: "FAIR" INDICATES FEW OR NO CLOUDS BELOW 12,000 FEET WITH NO
SIGNIFICANT WEATHER AND/OR OBSTRUCTIONS TO VISIBILITY. N/A MEANS
CURRENT SKY AND/OR WEATHER CONDITIONS ARE NOT AVAILABLE.

MNZ060>063-068>070-250200-
   Twin Cities Metro

CITY           SKY/WX    TMP DP  RH WIND       PRES   REMARKS
TWIN CITIES    CLOUDY    62  53  72 S5        29.85S
ST PAUL        CLOUDY    56  54  93 SE6       29.86S
CRYSTAL        CLOUDY    57  52  83 S3        29.83S
LAKEVILLE      CLOUDY    55  52  88 SW3       29.87S
EDEN PRAIRIE   MOCLDY    61  52  72 SW5       29.85S
SOUTH ST PAUL  CLOUDY    56  55  93 CALM      29.86S FOG
LAKE ELMO      FOG       54  54 100 S3        29.87S VSB 1/2
$$
MNZ001>005-007-008-013>017-022>024-027-028-250200-
   Northwest Minnesota

CITY           SKY/WX    TMP DP  RH WIND       PRES   REMARKS
BEMIDJI        PTCLDY    62  35  35 W18G25    29.79R
HALLOCK        CLEAR     55  36  47 W8G16     29.78R
ROSEAU         CLEAR     59  37  44 W13G18    29.74R
WARROAD        CLEAR     59  39  47 W14G20    29.73R
THIEF RVR FALL PTCLDY    59  32  36 W14       29.80R
CROOKSTON      PTCLDY    55  34  44 W10       29.83R
FOSSTON        MOCLDY    57  30  35 W10       29.82S
DETROIT LAKES  MOCLDY    63  37  39 NW17      29.87R
MOORHEAD       MOCLDY    64  25  22 W13G21    29.87R
PARK RAPIDS    CLOUDY    56  41  57 W10       29.81R
MAHNOMEN       FAIR      58  39  49 NW12      29.84R
$$
MNZ006-009>011-018-025>026-250200-
   North Central Minnesota

CITY           SKY/WX    TMP DP  RH WIND       PRES   REMARKS
BAUDETTE       MOCLDY    61  33  35 W12G23    29.70R
FLAG ISLAND    PTCLDY    59  37  44 W22G32    29.68R
INTL FALLS     PTCLDY    64  37  36 W14G25    29.66S
WASKISH        PTCLDY    57  41  54 W14G24    29.74S
BIG FORK       CLEAR     64  39  39 W10G21    29.75R
LONGVILLE      MOCLDY    63  41  45 SW6       29.79S
GRAND RAPIDS   PTCLDY    63  37  39 SW3       29.77R
CRANE LAKE     PTCLDY    61  39  44 S5        29.68S
ORR            PTCLDY    61  37  41 W6        29.68R
COOK           PTCLDY    63  39  42 SW10      29.71S
WALKER         FAIR      62  41  46 W12G17    29.79R
$$
MNZ012-019>021-037-250200-
   Northeast Minnesota

CITY           SKY/WX    TMP DP  RH WIND       PRES   REMARKS
DULUTH         PTCLDY    59  50  72 SW13      29.76F
ELY            MOCLDY    61  37  41 SW7       29.70S
HIBBING        PTCLDY    53  40  61 S3        29.74S
EVELETH        PTCLDY    59  43  55 SW9       29.74S
DULUTH HARBOR  PTCLDY    61  54  77 SW13      29.76S
TWO HARBORS    PTCLDY    61  43  51 SW7       29.73S
SILVER BAY     PTCLDY    59  52  77 SW3       29.71F
GRAND MARAIS     N/A     47  45  93 W6        29.69F
G MARAIS ARPRT PTCLDY    50  45  81 SW6       29.70F
$$
MNZ029>031-032-039>041-046>048-054>057-064-250200-
   West Central Minnesota

CITY           SKY/WX    TMP DP  RH WIND       PRES   REMARKS
FERGUS FALLS   MOCLDY    64  37  36 NW13      29.87R
WHEATON        PTCLDY    63  43  48 W7        29.90R
MORRIS         MOCLDY    61  43  51 W10       29.86S
ALEXANDRIA     MOCLDY    61  43  51 W9        29.86R
ELBOW LAKE     FAIR      63  43  47 W9        29.86R
WADENA         CLOUDY    61  43  51 W6        29.83R
GLENWOOD       PTCLDY    59  43  55 SW9       29.86S
APPLETON       MOCLDY    63  41  45 W7        29.87F
BENSON         MOCLDY    57  45  62 W8        29.87S
ORTONVILLE     MOCLDY    64  41  42 W8        29.89R
MADISON        MOCLDY    64  39  39 W6        29.89S
WILLMAR        FAIR      61  41  48 SW6       29.89S
$$
MNZ033>034-036-042>043-049>051-058-059-250200-
   Central Minnesota

CITY           SKY/WX    TMP DP  RH WIND       PRES   REMARKS
ST CLOUD       MOCLDY    62  44  51 S5        29.83S
SAUK CENTRE    FAIR      57  43  58 SW6       29.85S
PAYNESVILLE    PTCLDY    55  42  60 S8        29.86S
AITKIN         MOCLDY    63  39  42 SW6       29.78S
PINE RIVER     CLOUDY    59  43  55 CALM      29.84S
BRAINERD       CLOUDY    59  39  47 SW6       29.81S
STAPLES        CLOUDY    59  39  47 SW6       29.82S
LONG PRAIRIE   FAIR      59  41  51 SW6       29.85R
LITTLE FALLS   CLOUDY    55  41  58 CALM      29.83S
LITCHFIELD     PTCLDY    63  45  51 SW3       29.87S
BUFFALO        MOCLDY    57  49  74 SW5       29.86R
MAPLE LAKE     MOCLDY    59  47  64 SW3       29.85S
$$
MNZ037-044-045-052-053-250200-
   East Central Minnesota

CITY           SKY/WX    TMP DP  RH WIND       PRES   REMARKS
PRINCETON      CLOUDY    59  52  77 SW3       29.83S
MORA           CLOUDY    54  46  76 SW5       29.83F
CAMBRIDGE      CLOUDY    61  48  63 S5        29.81F
RUSH CITY      CLOUDY    54  51  89 CALM      29.83S
MOOSE LAKE     PTCLDY    55  50  82 SW6       29.77F
HINCKLEY       FAIR      55  52  88 CALM      29.81F
CLOQUET        FAIR      57  50  77 SW9       29.77F
MCGREGOR       MOCLDY    57  46  67 SW8       29.80R
$$
MNZ071>073-080-081-089-090-097-098-250200-
   Southwest Minnesota

CITY           SKY/WX    TMP DP  RH WIND       PRES   REMARKS
MONTEVIDEO     MOCLDY    64  41  42 W5        29.89S
GRANITE FALLS  MOCLDY    56  44  63 SW10      29.91R
CANBY          MOCLDY    61  40  47 W3        29.91S
MARSHALL       CLOUDY    61  39  44 W12       29.90S
REDWOOD FALLS  MOCLDY    61  41  47 W9        29.89R
OLIVIA         MOCLDY    57  43  58 W5        29.88R
PIPESTONE      CLEAR     57  41  54 NW3       29.95R
WINDOM         MOCLDY    59  37  44 SW5       29.92R
WORTHINGTON    PTCLDY    55  39  54 W6        29.95R
JACKSON        MOCLDY    59  36  41 W5        29.94R
TRACY          MOCLDY    64  41  42 W6        29.92R
SLAYTON        PTCLDY    58  41  54 CALM      29.94S
$$
MNZ065>067-074>077-082>085-091>093-250200-
   South Central Minnesota

CITY           SKY/WX    TMP DP  RH WIND       PRES   REMARKS
MANKATO        MOCLDY    63  46  55 SW3       29.89S
NEW ULM        MOCLDY    57  46  67 S6        29.87F
ST JAMES       MOCLDY    57  43  58 SW3       29.91S
FAIRMONT       MOCLDY    57   5  12 W3        29.91S
GLENCOE        PTCLDY    62  52  69 SW6       29.86S
FARIBAULT      MOCLDY    54  50  87 SW5       29.89S
OWATONNA       MOCLDY    54  48  82 SW5       29.90R
WASECA         MOCLDY    50  45  81 CALM      29.91S
ALBERT LEA     PTCLDY    55  54  94 CALM      29.91R FOG
$$
MNZ078>079-086>088-094>096-250200-
   Southeast Minnesota

CITY           SKY/WX    TMP DP  RH WIND       PRES   REMARKS
ROCHESTER      FOG       57  56  96 S8        29.91R VSB 1/4
RED WING       CLOUDY    52  50  93 CALM      29.86S FOG
STANTON        CLOUDY    55  51  86 S5        29.86S
DODGE CENTER   FOG       54  54 100 SW6       29.90R VSB 3/4
WINONA         CLOUDY    59  55  88 CALM      29.89S
AUSTIN         FOG       55  54  94 CALM      29.90S VSB<1/4
PRESTON        CLOUDY    56  55  95 SW5       29.91S FOG
$$
ABBREVIATIONS USED IN REMARKS
   TC - TEMPERATURES IN CELSIUS
  WCI - WIND CHILL INDEX
   HX - HEAT INDEX
  VSB - VISIBILITY
$$



USA.gov is the U.S. government's official web portal to all federal, state and local government web resources and services.